Regional Weather Roundup
Issued by NWS

Home | Current Version | Previous Version | Graphics & Text | Print | Product List | Glossary On
Versions: 1 2 3 4 5 6 7 8 9 10 11 12 13 14 15 16 17 18 19 20 21 22 23 24 25 26 27 28 29 30 31 32 33 34 35 36 37 38 39 40 41 42 43 44 45 46 47 48 49 50
000
ASUS43 KMPX 011503
RWRMN
MINNESOTA STATE WEATHER ROUNDUP...
NATIONAL WEATHER SERVICE TWIN CITIES/CHANHASSEN MN
900 AM CST TUE SEP 01 2015


NOTE: "FAIR" INDICATES FEW OR NO CLOUDS BELOW 12,000 FEET WITH NO
SIGNIFICANT WEATHER AND/OR OBSTRUCTIONS TO VISIBILITY. N/A MEANS
CURRENT SKY AND/OR WEATHER CONDITIONS ARE NOT AVAILABLE.

MNZ060>063-068>070-011600-
...TWIN CITIES METRO...

CITY           SKY/WX    TMP DP  RH WIND       PRES   REMARKS
TWIN CITIES    PTSUNNY   78  68  71 S3        29.92S
ST PAUL        MOSUNNY   75  68  78 SE6       29.93R HAZE
CRYSTAL        MOSUNNY   79  67  66 SW6       29.90S
EDEN PRAIRIE   MOSUNNY   76  68  76 SW6       29.92R
LAKEVILLE      PTSUNNY   73  70  88 S5        29.93S
SOUTH ST PAUL  MOSUNNY   76  68  78 CALM      29.93R
$$
MNZ001>005-007-008-013>017-022>024-027-028-011600-
...NORTHWEST MINNESOTA...

CITY           SKY/WX    TMP DP  RH WIND       PRES   REMARKS
BEMIDJI        PTSUNNY   66  60  80 S3        29.92S
HALLOCK        SUNNY     70  54  56 S8        29.85S
ROSEAU         SUNNY     70  55  60 SW7       29.88S
WARROAD        SUNNY     68  57  68 SW6       29.88S
THIEF RVR FALL MOSUNNY  N/A N/A N/A S5        29.88S
CROOKSTON      SUNNY     70  57  64 S6        29.88S
FOSSTON        MOSUNNY   70  61  73 S5        29.91S
DETROIT LAKES  MOSUNNY   70  63  78 SE7       29.92S
PARK RAPIDS    PTSUNNY   69  63  81 SE5       29.92F
$$
MNZ006-009>011-018-025>026-011600-
...NORTH CENTRAL MINNESOTA...

CITY           SKY/WX    TMP DP  RH WIND       PRES   REMARKS
BAUDETTE       SUNNY     70  56  61 SW6       29.88S
FLAG ISLAND    SUNNY     68  55  64 SW6       29.85S
INTL FALLS     MOSUNNY   66  58  75 CALM      29.90S
WASKISH        MOSUNNY   64  63  94 CALM      29.90S
BIG FORK       CLOUDY    64  64 100 CALM      29.92F
LONGVILLE      PTSUNNY   70  63  78 CALM      29.92S
GRAND RAPIDS     N/A     72  63  73 CALM      29.93S
COOK           CLOUDY    66  61  82 CALM      29.93S
$$
MNZ012-019>021-037-011600-
...NORTHEAST MINNESOTA...

CITY           SKY/WX    TMP DP  RH WIND       PRES   REMARKS
DULUTH         PTSUNNY   74  67  78 N3        29.92S
ELY            PTSUNNY   70  64  83 CALM      29.92S
HIBBING        CLOUDY    71  60  68 CALM      29.93S
EVELETH        PTSUNNY   66  61  82 CALM      29.94R
DULUTH HARBOR  PTSUNNY   73  70  88 SW3       29.90S
TWO HARBORS    PTSUNNY   79  70  73 CALM      29.89S
SILVER BAY     PTSUNNY   79  64  61 CALM      29.89S
GRAND MARAIS     N/A     56  55  97 SW6       29.87S
G MARAIS ARPRT CLOUDY    72  64  78 CALM      29.94R
$$
MNZ029>031-032-039>041-046>048-054>057-064-011600-
...WEST CENTRAL MINNESOTA...

CITY           SKY/WX    TMP DP  RH WIND       PRES   REMARKS
FERGUS FALLS   SUNNY     75  64  69 SE7       29.89S
WHEATON        SUNNY     73  64  73 E8        29.90F
MORRIS         MOSUNNY   75  68  78 E13       29.88F
ALEXANDRIA     PTSUNNY   74  66  76 E9        29.93F
WADENA         PTSUNNY   72  66  83 E5        29.92S
GLENWOOD       CLOUDY    73  66  78 E10       29.93S
APPLETON       PTSUNNY   75  66  73 E13       29.88S
BENSON         PTSUNNY   73  64  73 E9        29.89F
MADISON        PTSUNNY   72  70  94 E8        29.88F
$$
MNZ033>034-036-042>043-049>051-058-059-011600-
...CENTRAL MINNESOTA...

CITY           SKY/WX    TMP DP  RH WIND       PRES   REMARKS
ST CLOUD       CLOUDY    72  69  90 CALM      29.92S
AITKIN         CLOUDY    73  66  78 CALM      29.91F
PINE RIVER     PTSUNNY   70  63  78 CALM      29.96S
BRAINERD       PTSUNNY   73  65  75 CALM      29.92F
STAPLES        PTSUNNY   70  63  78 CALM      29.92F
LITTLE FALLS   PTSUNNY   72  64  78 CALM      29.93R
LITCHFIELD     CLOUDY    72  70  94 SE6       29.91F
HUTCHINSON     SUNNY     75  70  83 SE5       29.92S
$$
MNZ037-044-045-052-053-011600-
...EAST CENTRAL MINNESOTA...

CITY           SKY/WX    TMP DP  RH WIND       PRES   REMARKS
PRINCETON      PTSUNNY   73  70  88 CALM      29.92S
MORA           CLOUDY    70  66  88 CALM      29.94R
CAMBRIDGE      PTSUNNY   77  66  69 W3        29.90S
RUSH CITY      CLOUDY    74  69  82 S5        29.91F
MOOSE LAKE     CLOUDY    70  68  94 CALM      29.90F
CLOQUET        PTSUNNY   73  66  78 CALM      29.92S
$$
MNZ071>073-080-081-089-090-097-098-011600-
...SOUTHWEST MINNESOTA...

CITY           SKY/WX    TMP DP  RH WIND       PRES   REMARKS
MONTEVIDEO     CLOUDY    77  72  83 SE6       29.91S
MARSHALL       CLOUDY    72  64  78 CALM      29.92R
REDWOOD FALLS  CLOUDY    72  67  84 S6        29.90S
PIPESTONE      CLOUDY    72  66  83 S3        29.92F
WINDOM         MOSUNNY   79  68  69 S6        29.92S
WORTHINGTON    MOSUNNY   73  66  78 S9        29.92S
JACKSON        SUNNY     73  70  88 S6        29.93F
$$
MNZ065>067-074>077-082>085-091>093-011600-
...SOUTH CENTRAL MINNESOTA...

CITY           SKY/WX    TMP DP  RH WIND       PRES   REMARKS
MANKATO        PTSUNNY   73  68  83 S5        29.93S
NEW ULM        CLOUDY    72  68  88 SE5       29.91S
ST JAMES       PTSUNNY   75  70  83 SE5       29.92F
FAIRMONT       MOSUNNY   73  66  78 S8        29.92F
GLENCOE        PTSUNNY   76  70  82 SE3       29.91F
FARIBAULT      PTSUNNY   77  72  83 SW3       29.94S
OWATONNA       PTSUNNY   75  70  83 S6        29.94S
$$
MNZ078>079-086>088-094>096-011600-
...SOUTHEAST MINNESOTA...

CITY           SKY/WX    TMP DP  RH WIND       PRES   REMARKS
ROCHESTER      SUNNY     76  71  85 S8        29.97S
RED WING       SUNNY     77  72  83 SE6       29.92F
DODGE CENTER   MOSUNNY   73  72  94 S5        29.96S
WINONA         SUNNY     77  72  83 SE7       29.95F
AUSTIN         MOSUNNY   75  72  88 S8        29.96S
$$



USA.gov is the U.S. government's official web portal to all federal, state and local government web resources and services.